This is the latest recevied weather packets stored in our database for station/object KA1JKB. If no packets are shown the sender has not sent any weather packets the latest 10 day(s).
| Time | Temp. | Humidity | Pressure | Rain* | Wind** | Luminosity | Snow |
|---|---|---|---|---|---|---|---|
| 1788350579 | 22.78° C | 99% | 1013.2 hPa | 0 mm | - | 52 W/m² | - |
| 1788350273 | 22.22° C | 99% | 1013.4 hPa | 0 mm | - | 48 W/m² | - |
| 1788349970 | 22.22° C | 99% | 1013.2 hPa | 0 mm | - | 42 W/m² | - |
| 1788349666 | 21.67° C | 99% | 1013.3 hPa | 0 mm | - | 32 W/m² | - |
| 1788349362 | 21.67° C | 99% | 1013.1 hPa | 0 mm | - | 24 W/m² | - |
| 1788349061 | 21.67° C | 99% | 1013.2 hPa | 0 mm | - | 19 W/m² | - |
| 1788348757 | 21.67° C | 99% | 1013 hPa | 0 mm | - | 14 W/m² | - |
| 1788348456 | 22.22° C | 99% | 1013.1 hPa | 0 mm | - | 10 W/m² | - |
| 1788348154 | 22.22° C | 99% | 1013.1 hPa | 0 mm | - | 8 W/m² | - |
| 1788347849 | 22.22° C | 99% | 1013.1 hPa | 0 mm | - | 5 W/m² | - |
| 1788347566 | 22.22° C | 99% | 1013.2 hPa | 0 mm | - | 4 W/m² | - |
| 1788347240 | 22.22° C | 99% | 1013.5 hPa | 0 mm | - | 1 W/m² | - |
| 1788346936 | 22.22° C | 99% | 1013.3 hPa | 0 mm | - | 1 W/m² | - |
| 1788346635 | 22.22° C | 99% | 1013.6 hPa | 0 mm | - | 0 W/m² | - |
| 1788346331 | 21.67° C | 99% | 1013.6 hPa | 0 mm | - | 0 W/m² | - |
| 1788346028 | 21.67° C | 99% | 1013.6 hPa | 0 mm | - | 0 W/m² | - |
| 1788345722 | 22.22° C | 99% | 1013.4 hPa | 0 mm | - | 0 W/m² | - |
| 1788345421 | 22.22° C | 99% | 1013.5 hPa | 0 mm | - | 0 W/m² | - |
| 1788345116 | 22.22° C | 99% | 1013.4 hPa | 0 mm | - | 0 W/m² | - |
| 1788344812 | 22.78° C | 99% | 1013.6 hPa | 0 mm | - | 0 W/m² | - |
| 1788344509 | 22.22° C | 99% | 1013.4 hPa | 0 mm | - | 0 W/m² | - |
| 1788344204 | 22.22° C | 99% | 1013.2 hPa | 0 mm | - | 0 W/m² | - |
| 1788343904 | 21.67° C | 99% | 1013.3 hPa | 0 mm | - | 0 W/m² | - |
| 1788343599 | 21.11° C | 99% | 1013.3 hPa | 0 mm | - | 0 W/m² | - |
| 1788343294 | 20.56° C | 99% | 1013.1 hPa | 0 mm | - | 0 W/m² | - |
* Rain latest hour (hover to see other rain measurements)
** Current wind speed in m/s (hover to see current wind gust speed)